Regional Weather Roundup
Issued by NWS Glasgow, MT

Home | Current Version | Previous Version | Text Only | Print | Product List | Glossary On
Versions: 1 2 3 4 5 6 7 8 9 10 11 12 13 14 15 16 17 18 19 20 21 22 23 24 25 26 27 28 29 30 31 32 33 34 35 36 37 38 39 40 41 42 43 44 45 46 47 48
000
ASUS45 KGGW 071315
RWRGGW
HOURLY REGIONAL WEATHER ROUNDUP FOR NORTHEAST MONTANA
NATIONAL WEATHER SERVICE GLASGOW MONTANA
600 AM MST SUN FEB 07 2016

NOTE: "FAIR" INDICATES FEW OR NO CLOUDS BELOW 12,000 FEET WITH NO
SIGNIFICANT WEATHER AND/OR OBSTRUCTIONS TO VISISBILITY.

NORTHEAST MONTANA


CITY           SKY/WX    TMP DP  RH WIND       PRES   REMARKS
GLASGOW        CLEAR     29  19  66 NW28G33   30.15R
PLENTYWOOD       N/A     30  25  81 NW32G46     N/A
WOLF POINT     PTCLDY    33  20  58 NW33G44   30.09R
JORDAN           N/A     31  18  58 NW25G31   30.22R
WINNETT          N/A     32  16  51 CALM        N/A
SIDNEY         MOCLDY    34  19  55 NW35G46   29.99R
GLENDIVE       CLOUDY    32  18  55 W35G46    30.06R
MALTA            N/A     29  19  66 W15G24      N/A
SCOBEY           N/A     29  12  49 NW30G46   30.01R

FORT PECK REPORTS


CITY           SKY/WX    TMP DP  RH WIND       PRES   REMARKS
FORT PECK        N/A     32  21  64 W35G49      N/A
THE PINES        N/A     31  19  61 W15G31      N/A

SOUTHEAST MONTANA


CITY           SKY/WX    TMP DP  RH WIND       PRES   REMARKS
BILLINGS       PTCLDY    31  15  52 NW10      30.33R
MILES CITY     CLEAR     34  14  43 NW28G43   30.18R
BAKER          MOCLDY    32  12  43 NW32G53   30.03R
LIVINGSTON     CLEAR     28  15  58 W20       30.34R

CENTRAL MONTANA


CITY           SKY/WX    TMP DP  RH WIND       PRES   REMARKS
HAVRE          CLEAR     27  16  63 NW13      30.34R
LEWISTOWN      CLEAR     27  15  61 NW14      30.32R
GREAT FALLS    CLEAR     20  14  77 SW10      30.37R
CUT BANK       CLEAR     23  13  65 NW13      30.36R
HELENA         CLOUDY    30  16  56 W5        30.42R
BUTTE          CLOUDY     8   3  80 SE3       30.42R
BOZEMAN        CLOUDY    19  12  74 S7        30.43R

WESTERN MONTANA


CITY           SKY/WX    TMP DP  RH WIND       PRES   REMARKS
MISSOULA       CLEAR     19  15  84 CALM      30.52R
KALISPELL      NOT AVBL

NORTH DAKOTA


CITY           SKY/WX    TMP DP  RH WIND       PRES   REMARKS
WILLISTON      MIX PCPN  32  24  72 NW36G48   29.92R
DICKINSON      LGT SNOW  28  23  81 NW36G51   29.87R
MINOT          FLURRIES  35  24  64 W39G49    29.71R
BISMARCK       LGT SNOW  35  28  75 W22G33    29.79R

SOUTHERN SASKATCHEWAN


CITY           SKY/WX    TMP DP  RH WIND       PRES   REMARKS
REGINA         CLOUDY    25  18  74 NW33G48   29.96R
ESTEVAN        CLOUDY    25  19  80 NW38G47   29.84R
SWIFT CURRENT  CLEAR     25  19  80 NW25G35   30.12R




USA.gov is the U.S. government's official web portal to all federal, state and local government web resources and services.